TimeAKDT,TemperatureF,Dew PointF,Humidity,Sea Level PressureIn,VisibilityMPH,Wind Direction,Wind SpeedMPH,Gust SpeedMPH,PrecipitationIn,Events,Conditions,WindDirDegrees,DateUTC
12:53 AM,46.0,36.0,68,29.86,10.0,North,9.2,-,N/A,,Scattered Clouds,350,2013-05-28 08:53:00
1:53 AM,45.0,35.1,68,29.87,10.0,NNE,3.5,-,N/A,,Clear,20,2013-05-28 09:53:00
2:53 AM,43.0,35.1,74,29.87,10.0,Calm,Calm,-,N/A,,Scattered Clouds,0,2013-05-28 10:53:00
3:53 AM,37.9,33.1,83,29.88,10.0,Calm,Calm,-,N/A,,Clear,0,2013-05-28 11:53:00
4:53 AM,39.9,35.1,83,29.88,10.0,Calm,Calm,-,N/A,,Scattered Clouds,0,2013-05-28 12:53:00
5:53 AM,39.0,35.1,86,29.88,10.0,Calm,Calm,-,N/A,,Scattered Clouds,0,2013-05-28 13:53:00
6:53 AM,41.0,35.1,79,29.89,10.0,Calm,Calm,-,N/A,,Scattered Clouds,0,2013-05-28 14:53:00
7:53 AM,44.1,37.0,76,29.90,10.0,Calm,Calm,-,N/A,,Scattered Clouds,0,2013-05-28 15:53:00
8:53 AM,39.9,36.0,86,29.90,10.0,ESE,3.5,-,N/A,,Mostly Cloudy,120,2013-05-28 16:53:00
9:53 AM,46.0,37.0,71,29.90,9.0,SE,3.5,-,N/A,,Mostly Cloudy,140,2013-05-28 17:53:00
10:53 AM,46.0,37.0,71,29.92,10.0,Calm,Calm,-,N/A,,Mostly Cloudy,0,2013-05-28 18:53:00
11:53 AM,43.0,36.0,76,29.93,10.0,SSW,6.9,-,N/A,,Scattered Clouds,210,2013-05-28 19:53:00
12:53 PM,48.9,37.0,64,29.94,10.0,SW,5.8,-,N/A,,Scattered Clouds,230,2013-05-28 20:53:00
1:53 PM,50.0,37.0,61,29.94,10.0,WSW,10.4,-,N/A,,Mostly Cloudy,250,2013-05-28 21:53:00
2:53 PM,51.1,37.9,61,29.94,10.0,West,11.5,-,N/A,,Scattered Clouds,260,2013-05-28 22:53:00
3:53 PM,52.0,37.9,59,29.94,10.0,West,11.5,-,N/A,,Scattered Clouds,260,2013-05-28 23:53:00
4:53 PM,53.1,37.0,55,29.94,10.0,West,10.4,-,N/A,,Scattered Clouds,260,2013-05-29 00:53:00
5:53 PM,54.0,37.0,53,29.92,10.0,West,10.4,-,N/A,,Scattered Clouds,270,2013-05-29 01:53:00
6:53 PM,55.0,36.0,49,29.92,10.0,West,11.5,-,N/A,,Scattered Clouds,270,2013-05-29 02:53:00
7:53 PM,59.0,34.0,39,29.92,10.0,NE,5.8,-,N/A,,Clear,40,2013-05-29 03:53:00
8:53 PM,59.0,36.0,42,29.92,10.0,Calm,Calm,-,N/A,,Scattered Clouds,0,2013-05-29 04:53:00
9:53 PM,55.9,37.0,49,29.91,10.0,North,6.9,-,N/A,,Scattered Clouds,350,2013-05-29 05:53:00
10:53 PM,53.1,37.0,55,29.91,10.0,North,5.8,-,N/A,,Scattered Clouds,350,2013-05-29 06:53:00
11:53 PM,48.9,37.0,64,29.91,10.0,North,4.6,-,N/A,,Scattered Clouds,360,2013-05-29 07:53:00